Погода в Марондере

Зимбабве     18°11′14″S   31°33′14″E
темп.,
°C
ветер,
м/с
пор.,
м/с
влажн.,
%
обл.,
%
осадки,
мм/ч
давл.,
гПа
погр.,
м
10 августа, ср
ср1023:00+12всв25360 0.0 1021108
02:00+10ссв24530 0.0 102157
05:00+9св11600 0.0 102213
08:00+15юв24390 0.0 1022230
11:00+23юв22210 0.0 10201552
14:00+25ююв33150 0.0 10162350
17:00+22ююв46180 0.0 1016328
20:00+14в23340 0.0 102037
11 августа, чт
чт1123:00+12св11510 0.0 102111
02:00+11ссв11610 0.0 102110
05:00+9с11700 0.0 102110
08:00+16всв11510 0.0 1022220
11:00+22ююв34260 0.0 10201556
14:00+25ююв33180 0.0 10162204
17:00+22ююв46240 0.0 1016387
20:00+14вюв39500 0.0 1020158
12 августа, пт
пт1223:00+13ссв38600 0.0 1021159
02:00+11ссв34710 0.0 102072
05:00+10ссв22740 0.0 102024
08:00+16св23490 0.0 1020237
11:00+25ююв12230 0.0 10181698
14:00+26ююв22160 0.0 10142416
17:00+24ююв35180 0.0 1013211
20:00+16всв22350 0.0 101724
13 августа, сб
сб1323:00+14ссв310490 0.0 1019206
02:00+12ссв310598 0.0 1018203
05:00+11ссв36655 0.0 101895
08:00+18с464226 0.0 1018309
11:00+25с32233 0.0 10141713
14:00+28ссз221711 0.0 10102426
17:00+25ссз34205 0.0 1010140
20:00+17с38371 0.0 1013132
14 августа, вс
вс1423:00+15с513440 0.0 1015318
02:00+14с38524 0.0 1014146
05:00+13с37530 0.0 101496
08:00+19с47395 0.0 1015274
11:00+27зсз34175 0.0 10122026
14:00+29зюз331211 0.0 10082855
17:00+26зюз11155 0.0 100818
20:00+19сз11210 0.0 101211